DW4238 Weather Reports


time (UTC)temp
F
wind
direction
speed
knots
gust
knots
rain 1hr
in
rain 24hr
in
rain mn
in
humidity
%
barometer
mb
20260508193607 75 145 3.5 7.0 0.00 0.09 0.09 85 1009.9
20260508193039 75 145 2.6 7.8 0.00 0.09 0.09 86 1009.9
20260508192543 74 159 5.2 7.8 0.00 0.09 0.09 85 1010.0
20260508191542 74 137 2.6 4.3 0.00 0.09 0.09 85 1010.1
20260508191051 74 108 2.6 3.5 0.00 0.09 0.09 85 1010.3
20260508190048 74 105 2.6 6.1 0.00 0.09 0.09 85 1010.4
20260508185558 74 91 3.5 6.1 0.00 0.09 0.09 86 1010.3
20260508184619 74 63 3.5 5.2 0.00 0.09 0.09 87 1010.4
20260508184102 73 99 0.9 6.1 0.00 0.09 0.09 86 1010.6
20260508183045 73 98 2.6 7.0 0.00 0.09 0.09 86 1010.8
20260508182534 73 83 2.6 7.0 0.00 0.09 0.09 87 1010.9
20260508181555 72 80 3.5 7.0 0.00 0.09 0.09 86 1010.9
20260508181107 72 26 3.5 5.2 0.00 0.09 0.09 87 1010.9
20260508180610 72 71 2.6 5.2 0.00 0.09 0.09 87 1011.0
20260508180034 71 119 2.6 7.0 0.00 0.09 0.09 87 1011.0
20260508175547 71 110 3.5 5.2 0.00 0.09 0.09 88 1011.1
20260508175031 70 113 2.6 6.1 0.00 0.09 0.09 88 1011.1
20260508174613 70 113 3.5 6.1 0.00 0.09 0.09 88 1011.1
20260508174027 70 138 2.6 6.1 0.00 0.09 0.09 88 1011.3
20260508173049 70 124 2.6 4.3 0.00 0.09 0.09 88 1011.4
20260508172600 70 128 2.6 7.0 0.00 0.09 0.09 88 1011.4
20260508172103 70 130 3.5 7.0 0.00 0.09 0.09 88 1011.5
20260508171530 69 120 2.6 5.2 0.00 0.09 0.09 88 1011.4
20260508171026 69 126 3.5 5.2 0.00 0.09 0.09 88 1011.6
20260508170053 69 137 1.7 6.1 0.00 0.09 0.09 88 1011.9
20260508165556 69 138 2.6 6.1 0.00 0.09 0.09 88 1012.0
20260508164621 68 145 1.7 6.1 0.00 0.09 0.09 88 1012.1
20260508164111 68 146 3.5 6.1 0.00 0.09 0.09 88 1012.1
20260508163620 68 159 2.6 4.3 0.00 0.09 0.09 88 1012.1
20260508163041 68 129 2.6 7.0 0.00 0.09 0.09 88 1012.0
20260508162551 68 77 3.5 8.7 0.00 0.09 0.09 88 1012.0
20260508161611 68 69 5.2 8.7 0.00 0.09 0.09 89 1011.8
20260508161041 68 70 5.2 8.7 0.00 0.09 0.09 89 1011.9
20260508155608 67 76 6.1 8.7 0.00 0.09 0.09 89 1011.9
20260508155119 67 62 4.3 7.8 0.00 0.09 0.09 89 1012.1
20260508154546 67 108 6.1 8.7 0.00 0.09 0.09 89 1012.2
20260508154049 67 87 6.1 11.3 0.00 0.09 0.09 89 1012.1
20260508153049 67 63 6.1 8.7 0.00 0.09 0.09 88 1012.1
20260508152533 67 84 5.2 10.4 0.00 0.09 0.09 89 1012.3
20260508151559 67 137 5.2 8.7 0.00 0.09 0.09 89 1012.3
20260508151045 66 84 5.2 8.7 0.00 0.09 0.09 89 1012.5
20260508150105 66 96 4.3 8.7 0.00 0.09 0.09 90 1012.6
20260508145616 66 80 4.3 7.8 0.00 0.09 0.09 90 1012.6
20260508145115 65 105 3.5 7.0 0.00 0.09 0.09 90 1012.8
20260508144525 65 85 4.3 7.0 0.00 0.09 0.09 90 1012.8
20260508144138 65 68 2.6 7.8 0.00 0.09 0.09 90 1012.8
20260508143621 65 77 6.1 7.8 0.00 0.09 0.09 90 1012.6
20260508143045 65 78 4.3 6.1 0.00 0.09 0.09 90 1012.7
20260508142555 64 78 4.3 5.2 0.00 0.09 0.09 91 1012.8
20260508141615 64 82 3.5 7.0 0.00 0.09 0.09 91 1012.6
20260508141122 64 80 2.6 7.0 0.00 0.09 0.09 91 1012.6
20260508140612 64 29 4.3 7.0 0.00 0.09 0.09 91 1012.5
20260508135530 64 71 5.2 7.0 0.00 0.09 0.09 91 1012.6
20260508134551 63 68 2.6 5.2 0.00 0.09 0.09 91 1012.8
20260508134101 63 53 2.6 5.2 0.00 0.09 0.09 90 1012.8
20260508133604 63 69 2.6 4.3 0.00 0.09 0.09 90 1012.8
20260508133034 63 75 2.6 4.3 0.00 0.09 0.09 90 1012.7
20260508132545 63 55 2.6 4.3 0.00 0.09 0.09 90 1012.6
20260508131605 63 49 1.7 5.2 0.00 0.09 0.09 90 1012.7
20260508131109 63 48 3.5 5.2 0.00 0.09 0.09 90 1012.8
20260508130553 63 37 1.7 5.2 0.00 0.09 0.09 90 1012.8
20260508130024 63 23 3.5 7.0 0.00 0.09 0.09 90 1012.9
20260508125526 63 40 2.6 7.0 0.00 0.09 0.09 89 1012.8
20260508124545 63 38 1.7 4.3 0.08 0.09 0.09 89 1012.9
20260508124054 63 39 1.7 4.3 0.08 0.09 0.09 89 1012.9
20260508123557 63 321 0.9 2.6 0.09 0.09 0.09 89 1012.9
20260508123030 63 321 0.9 1.7 0.09 0.09 0.09 88 1013.0
20260508122542 63 327 0.0 2.6 0.09 0.09 0.09 88 1013.0
20260508121601 63 327 1.7 2.6 0.09 0.09 0.09 88 1013.2
20260508121114 63 327 0.0 0.9 0.09 0.09 0.09 87 1013.2
20260508120616 63 327 0.0 1.7 0.09 0.09 0.09 87 1013.2
20260508120022 63 327 0.9 2.6 0.09 0.09 0.09 87 1013.2
20260508115525 63 327 0.9 2.6 0.09 0.09 0.09 87 1013.1
20260508115041 63 327 0.9 3.5 0.09 0.09 0.09 86 1012.9
20260508114524 64 323 1.7 3.5 0.05 0.05 0.05 86 1012.7
20260508114036 64 304 2.6 5.2 0.01 0.01 0.01 85 1012.9
20260508113620 64 310 2.6 5.2 0.01 0.01 0.01 85 1013.0
20260508113045 64 350 0.9 3.5 0.00 0.00 0.00 85 1012.5
20260508112558 64 10 0.0 0.9 0.00 0.00 0.00 85 1012.7
20260508112117 64 10 0.0 2.6 0.00 0.00 0.00 85 1012.6
20260508111540 64 5 0.0 3.5 0.00 0.00 0.00 85 1012.6
20260508111025 64 355 1.7 3.5 0.00 0.00 0.00 84 1012.6
20260508110045 64 342 0.0 4.3 0.00 0.00 0.00 85 1012.4
20260508105555 64 355 2.6 4.3 0.00 0.00 0.00 85 1012.4
20260508104620 64 24 1.7 4.3 0.00 0.00 0.00 84 1012.4
20260508104109 64 32 1.7 4.3 0.00 0.00 0.00 85 1012.4
20260508103612 64 34 2.6 4.3 0.00 0.00 0.00 84 1012.5
20260508103039 64 57 2.6 4.3 0.00 0.00 0.00 84 1012.7
20260508102549 64 53 2.6 4.3 0.00 0.00 0.00 85 1012.8
20260508101542 64 48 1.7 4.3 0.00 0.00 0.00 84 1012.9
20260508101053 64 60 2.6 5.2 0.00 0.00 0.00 84 1012.7
20260508100051 64 74 3.5 4.3 0.00 0.00 0.00 84 1012.6
20260508095604 64 32 2.6 3.5 0.00 0.00 0.00 84 1012.7
20260508094604 64 30 3.5 7.0 0.00 0.00 0.00 84 1012.6
20260508094103 64 36 2.6 7.0 0.00 0.00 0.00 84 1012.4
20260508093109 64 32 2.6 4.3 0.00 0.00 0.00 84 1012.7
20260508092612 64 30 2.6 4.3 0.00 0.00 0.00 84 1012.7
20260508091559 64 37 1.7 4.3 0.00 0.00 0.00 84 1012.7
20260508091101 64 48 2.6 4.3 0.00 0.00 0.00 84 1012.7
20260508090049 64 59 1.7 4.3 0.00 0.00 0.00 84 1012.3
20260508085559 64 53 0.9 4.3 0.00 0.00 0.00 84 1012.3
20260508084622 64 49 2.6 4.3 0.00 0.00 0.00 84 1012.3
20260508084111 63 42 2.6 6.1 0.00 0.00 0.00 84 1012.6
20260508083614 63 45 3.5 6.1 0.00 0.00 0.00 84 1012.5
20260508083024 63 53 2.6 7.8 0.00 0.00 0.00 84 1012.2
20260508082535 63 55 3.5 7.8 0.00 0.00 0.00 84 1012.0
20260508081556 63 70 2.6 3.5 0.00 0.00 0.00 84 1012.2
20260508081059 63 49 1.7 7.8 0.00 0.00 0.00 84 1012.4
20260508080604 63 46 2.6 7.8 0.00 0.00 0.00 84 1012.5
20260508075523 63 29 3.5 5.2 0.00 0.00 0.00 84 1012.8
20260508075113 63 355 2.6 5.2 0.00 0.00 0.00 84 1012.6
20260508074535 63 42 3.5 5.2 0.00 0.00 0.00 84 1012.7
20260508074049 63 60 2.6 4.3 0.00 0.00 0.00 84 1012.9
20260508073110 63 38 1.7 5.2 0.00 0.00 0.00 84 1013.1
20260508072558 63 38 2.6 5.2 0.00 0.00 0.00 84 1013.2
20260508071619 63 360 1.7 3.5 0.00 0.00 0.00 84 1013.5
20260508071131 63 342 1.7 4.3 0.00 0.00 0.00 84 1013.7
20260508070613 63 336 2.6 4.3 0.00 0.00 0.00 84 1013.8
20260508070038 63 344 3.5 4.3 0.00 0.00 0.00 84 1013.9
20260508065545 63 18 2.6 4.3 0.00 0.00 0.00 84 1013.8
20260508065028 63 25 1.7 4.3 0.00 0.00 0.00 84 1013.5
20260508064529 63 27 1.7 4.3 0.00 0.00 0.00 84 1013.4
20260508064039 63 360 2.6 4.3 0.00 0.00 0.00 84 1013.5
20260508063523 63 351 1.7 7.8 0.00 0.00 0.00 84 1013.4
20260508063043 63 349 4.3 7.8 0.00 0.00 0.00 84 1013.4
20260508062531 63 329 3.5 7.8 0.00 0.00 0.00 84 1013.6
20260508062040 63 33 4.3 7.8 0.00 0.00 0.00 84 1013.2
20260508061531 63 22 4.3 7.8 0.00 0.00 0.00 84 1012.7
20260508061040 63 31 3.5 5.2 0.00 0.00 0.00 84 1012.7
20260508060528 63 49 3.5 5.2 0.00 0.00 0.00 84 1012.8
20260508060022 63 25 2.6 4.3 0.00 0.00 0.00 84 1013.1
20260508055533 63 27 2.6 4.3 0.00 0.00 0.00 84 1013.4
20260508055042 63 55 1.7 3.5 0.00 0.00 0.00 84 1013.5
20260508054602 63 61 0.9 3.5 0.00 0.00 0.00 84 1013.5
20260508054023 63 61 1.7 7.0 0.00 0.00 0.00 84 1013.2
20260508053530 63 36 3.5 7.8 0.00 0.00 0.00 84 1013.1
20260508053022 63 322 4.3 5.2 0.00 0.00 0.00 84 1013.8
20260508052530 63 340 2.6 4.3 0.00 0.00 0.00 84 1013.5
20260508052041 63 342 0.9 4.3 0.00 0.00 0.00 83 1013.1
20260508051540 63 340 1.7 4.3 0.00 0.00 0.00 84 1013.3
20260508051041 63 336 1.7 4.3 0.00 0.00 0.00 83 1013.4
20260508050531 63 331 2.6 7.0 0.00 0.00 0.00 84 1013.5
20260508045524 63 323 3.5 5.2 0.00 0.00 0.00 83 1014.0
20260508044542 63 337 1.7 3.5 0.00 0.00 0.00 83 1013.9
20260508044038 63 337 2.6 5.2 0.00 0.00 0.00 82 1013.8
20260508043617 63 339 2.6 5.2 0.00 0.00 0.00 82 1013.8
20260508043048 64 46 2.6 3.5 0.00 0.00 0.00 82 1013.8
20260508042558 64 49 1.7 2.6 0.00 0.00 0.00 81 1013.8
20260508042058 64 49 0.9 3.5 0.00 0.00 0.00 81 1013.7
20260508041529 64 49 2.6 3.5 0.00 0.00 0.00 81 1013.7
20260508041034 64 50 2.6 3.5 0.00 0.00 0.00 81 1013.9
20260508035604 64 74 2.6 2.6 0.00 0.00 0.00 80 1013.6
20260508035115 64 75 1.7 4.3 0.00 0.00 0.00 80 1013.4
20260508034536 64 75 3.5 4.3 0.00 0.00 0.00 80 1013.2
20260508034048 64 92 1.7 7.0 0.00 0.00 0.00 79 1013.2
20260508033029 64 69 5.2 8.7 0.00 0.00 0.00 79 1012.8
20260508032541 64 72 5.2 8.7 0.00 0.00 0.00 79 1012.7
20260508031556 64 71 5.2 7.8 0.00 0.00 0.00 79 1013.1
20260508031059 64 67 2.6 7.0 0.00 0.00 0.00 79 1013.0
20260508030610 64 59 2.6 8.7 0.00 0.00 0.00 78 1013.1
20260508030135 64 61 7.0 9.6 0.00 0.00 0.00 78 1012.8
20260508025624 64 76 7.0 9.6 0.00 0.00 0.00 78 1012.5
20260508024624 64 54 2.6 6.1 0.00 0.00 0.00 78 1012.7
20260508024119 64 26 2.6 7.0 0.00 0.00 0.00 78 1013.5
20260508023119 64 20 4.3 7.8 0.00 0.00 0.00 78 1013.3
20260508022609 64 38 1.7 3.5 0.00 0.00 0.00 78 1013.6
20260508022112 64 51 2.6 4.3 0.00 0.00 0.00 78 1013.5
20260508021538 64 78 3.5 4.3 0.00 0.00 0.00 78 1013.4
20260508021041 64 81 2.6 5.2 0.00 0.00 0.00 78 1013.0
20260508020041 65 74 4.3 6.1 0.00 0.00 0.00 78 1013.0
20260508015553 65 69 3.5 5.2 0.00 0.00 0.00 78 1013.0
20260508014617 65 74 3.5 5.2 0.00 0.00 0.00 78 1013.1
20260508014105 65 47 2.6 3.5 0.00 0.00 0.00 77 1013.4
20260508013127 65 29 1.7 5.2 0.00 0.00 0.00 77 1013.9
20260508012610 65 5 3.5 5.2 0.00 0.00 0.00 76 1013.9
20260508012120 66 13 3.5 5.2 0.00 0.00 0.00 76 1013.7
20260508011548 66 355 3.5 5.2 0.00 0.00 0.00 76 1013.7
20260508011054 66 5 2.6 3.5 0.00 0.00 0.00 76 1013.6
20260508010114 66 37 2.6 3.5 0.00 0.00 0.00 75 1013.5
20260508005530 67 38 1.7 5.2 0.00 0.00 0.00 74 1013.6
20260508004551 67 351 2.6 6.1 0.00 0.00 0.00 74 1013.7
20260508004104 67 348 2.6 6.1 0.00 0.00 0.00 74 1013.5
20260508003609 67 38 3.5 7.0 0.00 0.00 0.00 74 1013.4
20260508003035 67 51 2.6 7.0 0.00 0.00 0.00 74 1013.4
20260508002548 67 19 1.7 7.8 0.00 0.00 0.00 74 1013.5
20260508002109 67 350 4.3 7.8 0.00 0.00 0.00 73 1013.7
20260508001541 68 350 3.5 8.7 0.00 0.00 0.00 73 1013.6
20260508001046 68 32 4.3 8.7 0.00 0.00 0.00 73 1013.8
20260508000047 68 37 6.1 7.8 0.00 0.00 0.00 72 1013.7
20260507235556 68 25 3.5 7.0 0.00 0.00 0.00 72 1013.9
20260507234616 68 348 3.5 7.8 0.00 0.00 0.00 72 1014.0
20260507234108 68 39 3.5 9.6 0.00 0.00 0.00 72 1014.3
20260507233109 69 316 5.2 9.6 0.00 0.00 0.00 70 1014.2
20260507232557 69 28 5.2 9.6 0.00 0.00 0.00 71 1014.1
20260507231535 68 16 5.2 9.6 0.00 0.00 0.00 71 1013.9
20260507231043 68 46 3.5 11.3 0.00 0.00 0.00 71 1013.9
20260507230044 68 5 3.5 11.3 0.00 0.00 0.00 71 1013.9
20260507225556 68 44 6.1 11.3 0.00 0.00 0.00 70 1014.1
20260507224557 69 5 7.8 12.2 0.00 0.00 0.00 70 1014.6
20260507224107 69 355 6.1 10.4 0.00 0.00 0.00 71 1014.3
20260507223612 69 323 6.1 11.3 0.00 0.00 0.00 72 1014.3
20260507223040 68 341 7.8 12.2 0.00 0.00 0.00 71 1014.2
20260507222529 68 341 6.1 13.0 0.00 0.00 0.00 72 1014.3
20260507222115 69 331 7.8 13.0 0.00 0.00 0.00 72 1014.2
20260507221546 69 355 5.2 11.3 0.00 0.00 0.00 72 1014.0
20260507221049 69 349 5.2 9.6 0.00 0.00 0.00 72 1013.9
20260507220640 69 355 4.3 13.0 0.00 0.00 0.00 72 1013.8
20260507220036 69 360 9.6 13.0 0.00 0.00 0.00 70 1014.0
20260507215546 69 355 6.1 10.4 0.00 0.00 0.00 72 1013.9
20260507214606 69 13 4.3 10.4 0.00 0.00 0.00 71 1013.7
20260507214117 69 26 4.3 9.6 0.00 0.00 0.00 71 1013.7
20260507213559 69 34 4.3 8.7 0.00 0.00 0.00 71 1013.6
20260507213025 69 11 3.5 8.7 0.00 0.00 0.00 71 1013.5
20260507212527 69 5 6.1 8.7 0.00 0.00 0.00 70 1013.6
20260507212117 69 41 3.5 7.8 0.00 0.00 0.00 71 1013.8
20260507211547 69 17 4.3 7.8 0.00 0.00 0.00 70 1014.2
20260507211046 69 12 3.5 7.8 0.00 0.00 0.00 70 1014.3
20260507210053 69 84 6.1 9.6 0.00 0.00 0.00 69 1014.0
20260507205555 70 24 4.3 9.6 0.00 0.00 0.00 69 1013.9
20260507204616 70 46 6.1 11.3 0.00 0.00 0.00 68 1013.8
20260507204125 70 349 4.3 11.3 0.00 0.00 0.00 68 1013.8
20260507203607 70 18 7.0 11.3 0.00 0.00 0.00 68 1014.1
20260507203033 70 26 7.8 11.3 0.00 0.00 0.00 67 1014.5
20260507202543 70 26 5.2 10.4 0.00 0.00 0.00 69 1014.7
20260507201546 71 333 5.2 11.3 0.00 0.00 0.00 68 1014.9
20260507201049 71 344 7.0 14.8 0.00 0.00 0.00 67 1014.9
20260507200558 71 5 7.8 14.8 0.00 0.00 0.00 67 1014.9
20260507200027 72 5 5.2 10.4 0.00 0.00 0.00 67 1015.0
20260507195530 72 17 5.2 8.7 0.00 0.00 0.00 68 1014.9
20260507195141 72 37 6.1 9.6 0.00 0.00 0.00 67 1015.0
20260507194539 72 13 6.1 10.4 0.00 0.00 0.00 68 1014.9
20260507194029 72 59 5.2 9.6 0.00 0.00 0.00 67 1014.7